Regional Weather Roundup
Issued by NWS Midland/Odessa, TX

Skip options and go directly to product.
Home | Oldest Version | Previous Version | Current Version | All | Graphics & Text | Save Text | Print | Product List | Glossary On

Skip product version selection by date and time.   
829
ASUS44 KMAF 260801
RWRMAF
MIDLAND AREA WEATHER ROUNDUP
NATIONAL WEATHER SERVICE MIDLAND TX
300 AM CDT SUN JUN 26 2016

...IN SOUTHWEST TEXAS AND SOUTHEAST NEW MEXICO...

CITY           SKY/WX    TMP DP  RH WIND       PRES   REMARKS
ALPINE         CLOUDY    69  60  70 S6        30.17F
ANDREWS        FAIR      76  64  66 S8        30.09S
ARTESIA        PTCLDY    72  66  83 N6        30.08S
BIG SPRING     CLOUDY    75  64  69 SE12      30.11F
CARLSBAD       PTCLDY    73  69  87 N6        30.05R
DRYDEN           N/A     72  63  73 NE7       30.02F
FORT STOCKTON  CLEAR     73  62  68 S14       30.05F
GUAD PASS      CLEAR     71  57  61 E7          N/A
HOBBS          CLOUDY    75  63  64 SE7       30.13R
MARFA          CLOUDY   N/A N/A N/A SE3       30.16F
MIDLAND AIRPK  CLOUDY    78  64  61 S10       30.09S
MIDLAND INTL   CLOUDY    78  64  61 S9        30.07F
ODESSA         CLOUDY    77  63  61 S14       30.09S
PECOS          CLEAR     75  64  67 E12       30.00S
PRESIDIO       FAIR      79  58  48 NE8       30.02S
SEMINOLE       CLOUDY    77  63  62 SE7       30.11S
SNYDER           N/A     75  65  71 SE9       30.10S
WINK           CLEAR     76  61  59 SE15G24   30.03R
$$
...OTHER STATIONS IN TEXAS...

CITY           SKY/WX    TMP DP  RH WIND       PRES   REMARKS
ABILENE        CLOUDY    75  70  84 SE10      30.09S
AMARILLO       PTCLDY    70  60  70 N7        30.15F
AUSTIN         CLOUDY    76  75  97 CALM      30.06S
BROWNSVILLE    MOCLDY    79  76  90 SE7       30.01F
CORPUS CHRISTI MOCLDY    77  76  96 SE6       30.03S
DALLAS FTW     CLOUDY    82  72  71 S10       30.07S
DEL RIO        LGT RAIN  72  71  97 E8        30.00F
EL PASO        PTCLDY    76  54  46 E9        30.06F
HOUSTON INT    MOCLDY    77  75  93 CALM      30.06S
LUBBOCK        CLOUDY    75  67  76 SE13      30.11R
SAN ANGELO     CLOUDY    74  69  85 E5        30.07R
SAN ANTONIO    CLOUDY    78  74  87 SE13      30.07R
WACO           MOCLDY    80  75  84 S8        30.09R
WICHITA FALLS  NOT AVBL
$$
...OTHER LOCATIONS IN NEW MEXICO...

CITY           SKY/WX    TMP DP  RH WIND       PRES   REMARKS
ALAMAGORDO     CLEAR     72  52  49 CALM      30.09F
ALBUQUERQUE    CLOUDY    76  48  37 E14       30.19S
CANNON AFB     CLOUDY    70  58  66 E7        30.17S
CLOVIS         CLOUDY    68  55  64 E7        30.18R
HOLLOMAN AFB   CLEAR     73  50  43 NE8       30.06F
ROSWELL        MOCLDY    73  59  61 NW7       30.09S
RUIDOSO          N/A     61  48  63 CALM      30.33F
SANTA FE       CLOUDY    67  50  54 S12       30.28R
TRUTH OR CONSE MOCLDY    72  52  49 N3        30.14R
TUCUMCARI      CLOUDY    69  65  86 W3        30.15R
$$

USA.gov is the U.S. government's official web portal to all federal, state and local government web resources and services.